Retour au catalogue

STARLINK-32081

ActifCommunicationsVLEO
NORAD 60348·PAYLOAD·🇺🇸 United States

Lancé Aug 2, 2024 depuis Cape Canaveral Space Force Station

Loading…

Prochains Passages (prochaines 24 heures)

TLE

FraisSource: CelesTrak SupGP

Époque: Sep 15, 2026, 02:11 UTC

1 60348C 24136V   26258.09145833  .00003677  00000+0  11822-3 0  2580
2 60348  53.1575 274.3880 0001324  77.1080 306.4181 15.31707972    10

Suivez STARLINK-32081 en temps réel avec AllMySat

Download on the App Store